User: anonymous   Login
Location: Indian Hills
(32.9760°N, 85.9450°W)
Time: 13:55:13
(UTC+00:00)
Language:

STARLINK-44 - Orbit

View from above orbital plane
View from above orbital plane
View from above satellite
View from above satellite

Ground track
Ground track

The orbit data is extracted from the following two-line orbital elements,

1 44261C 19029AC  20057.18520331 -.00007952  00000-0 -45502-3 0   574
2 44261  53.0021 359.6876 0001629  55.8286 188.4287 15.12155892    14
Epoch (UTC): 26 February 2020 04:26:41
Eccentricity: 0.0001629
inclination: 53.0021°
perigee height: 528 km
apogee height: 531 km
right ascension of ascending node: 359.6876°
argument of perigee: 55.8286°
revolutions per day: 15.12155892
mean anomaly at epoch: 188.4287°
orbit number at epoch: 1

The dashed part of the orbit path shows where the satellite is in the earth's shadow,  

DLR